Terminal Aerodrome Forecast
Issued by NWS

Home | Current Version | Previous Version | Text Only | Print | Product List | Glossary On
Versions: 1 2 3 4 5 6 7 8 9 10 11 12 13 14 15 16 17 18 19 20 21 22 23 24 25 26 27 28 29 30 31 32 33 34 35 36 37 38 39 40 41 42 43 44 45 46 47 48 49 50
884
FTUS45 KBOU 201720
TAFAPA
TAF
KAPA 201720Z 2018/2118 17018G26KT P6SM SCT120 BKN220
     FM202000 14018G26KT P6SM VCSH SCT030 BKN050 OVC070
     FM202200 10015G23KT P6SM -SHRA BKN025 OVC050
     FM210100 04012KT 3SM -RASN BR SCT005 OVC012
      TEMPO 2103/2106 1SM -SN BR OVC003
     FM210600 34009KT 3/4SM -SN BR OVC001
     FM211400 34006KT 3SM -RASN SCT006 OVC012=

USA.gov is the U.S. government's official web portal to all federal, state and local government web resources and services.